[[{"header":{"parameterUnit":"m.s-1","parameterCategory":1,"la1":30.2991,"la2":30.254,"lo1":-89.0895,"lo2":-89.0444,"dy":0.0017,"dx":0.0017,"nx":28,"ny":28,"refTime":"2024-07-22T03:00:00:Z","depth":0,"parameterNumber":2,"parameterNumberName":"U-component_of_WINDS"},"data":[0,0,0,0,0,0,0,0,0,0,0,0,0,0,0,0,0,0,0,0,0,0,0,0,0,0,0,0,0,0,0,0,0,0,0,0,0,0,0,0,0,0,0,0,0,0,0,0,0,0,0,0,0,0,0,0,0,0,2.4143,2.4144,0,2.4237,2.4238,2.4239,2.4235,2.4233,2.4232,2.4231,2.4325,2.4328,2.4332,0,0,0,0,0,0,0,0,0,0,0,0,0,2.3953,2.3957,2.4142,2.4144,2.4145,2.4237,2.4238,2.424,2.4235,2.4233,2.4232,2.423,2.4324,2.4328,2.4332,0,0,0,0,0,0,0,0,0,0,0,0,0,2.404,2.3958,2.4142,2.4154,2.4156,2.4237,2.4238,2.424,2.4235,2.4233,2.4231,2.4229,2.4322,2.4328,2.4333,2.4408,0,0,2.435,2.4353,0,0,0,0,0,0,0,0,2.4035,2.4047,2.4151,2.4153,2.4155,2.4222,2.4206,2.4296,2.4236,2.4205,2.4231,2.4228,2.4292,2.43,2.4322,2.4413,2.4417,2.4351,2.4354,2.4357,2.4358,0,0,0,0,0,0,0,2.4029,2.4043,2.418,2.4152,2.4155,2.4153,2.4163,2.4223,2.4258,2.4207,2.4207,2.4219,2.4293,2.4317,2.4324,2.4418,2.4351,2.4356,2.4359,2.4361,2.4572,2.4574,0,0,0,0,0,0,2.4021,2.4038,2.4177,2.4183,2.4089,2.4158,2.4169,2.4203,2.4258,2.4264,2.422,2.4218,2.4308,2.4318,2.4328,2.4417,2.4357,2.4362,2.4365,2.457,2.4572,2.4575,0,0,0,0,0,0,2.4017,2.4034,2.4173,2.411,2.4128,2.4163,2.4201,2.4206,2.4229,2.4268,2.4274,2.4238,2.4307,2.432,2.4388,2.442,2.4364,2.437,2.4567,2.457,2.4574,2.4597,0,0,0,0,0,0,2.4012,2.4032,2.4062,2.4111,2.4131,2.4233,2.4203,2.4209,2.4239,2.4237,2.4286,2.4292,2.4306,2.4379,2.4393,2.4427,2.4374,2.4564,2.4569,2.4572,2.4594,2.4601,2.4607,0,0,0,0,0,2.4005,2.4065,2.4064,2.4081,2.417,2.4235,2.4246,2.4262,2.4242,2.4272,2.4296,2.4291,2.4415,2.4386,2.4402,2.4438,2.4562,2.4567,2.4572,2.4591,2.46,2.4607,0,0,0,0,0,0,2.4019,2.4072,2.4071,2.4149,2.4188,2.4234,2.4272,2.4271,2.4315,2.4311,2.4328,2.4339,2.4407,2.4429,2.4397,2.4512,2.4486,2.4494,2.4494,2.4503,2.451,2.4502,2.4379,0,0,0,0,0,2.4031,2.4081,2.4124,2.4189,2.4208,2.4237,2.4266,2.4274,2.4314,2.433,2.436,2.4398,2.4445,2.4476,2.4522,2.4598,2.4607,2.463,2.4636,2.4642,2.4648,2.4687,2.4697,2.4591,2.4591,2.4591,0,0,2.4057,2.4092,2.4122,2.4192,2.4223,2.4272,2.425,2.4304,2.434,2.4338,2.4404,2.4427,2.447,2.4542,2.4575,2.4562,2.468,2.4648,2.4652,2.4656,2.4693,2.4703,2.4712,2.4594,2.4594,2.4593,0,0,2.4128,2.4161,2.4217,2.4248,2.4295,2.4313,2.4326,2.4373,2.4388,2.4454,2.4453,2.4496,2.4578,2.4608,2.4634,2.4715,2.4711,2.4729,2.4764,2.4802,2.481,2.4817,2.4844,2.4853,2.4736,2.4736,2.4736,0,2.4153,2.4228,2.4245,2.4299,2.4328,2.433,2.4385,2.4414,2.4474,2.4493,2.4479,2.458,2.461,2.4687,2.4707,2.4729,2.4743,2.4723,2.4808,2.4815,2.4822,2.4848,2.4858,2.4738,2.4738,2.4737,2.4737,0,2.4256,2.4308,2.4347,2.4404,2.4439,2.4493,2.4516,2.4549,2.4554,2.4574,2.464,2.4675,2.4727,2.4747,2.4753,2.4824,2.4815,2.4804,2.4778,2.4834,2.4858,2.4868,2.474,2.474,2.4739,2.4739,0,0,2.4338,2.4403,2.4417,2.4441,2.4493,2.4533,2.4586,2.4637,2.4663,2.4704,2.4748,2.4816,2.4806,2.4836,2.4845,2.4879,2.4937,2.4864,2.4865,2.4874,2.5015,2.5021,2.5032,2.4935,2.4937,2.4939,2.501,0,2.4412,2.4507,2.4523,2.4606,2.4653,2.4654,2.47,2.4736,2.4755,2.4796,2.4817,2.4864,2.4849,2.4866,2.49,2.4923,2.4965,2.4918,2.4973,2.4975,2.496,2.5045,2.5052,2.5117,2.502,2.5021,2.5023,0,2.4511,2.4554,2.4642,2.4685,2.4705,2.4746,2.4793,2.4833,2.4873,2.4884,2.4917,2.4922,2.4975,2.4948,2.502,2.4987,2.5011,2.5026,2.5028,2.5032,2.5001,2.5048,2.5139,2.5148,2.5038,2.5037,2.5036,0,2.4559,2.4639,2.4701,2.4722,2.4775,2.4803,2.4826,2.4864,2.4893,2.4934,2.4952,2.4999,2.5023,2.5059,2.5075,2.5054,2.5145,2.512,2.5154,2.5154,2.5172,2.517,2.5265,2.5191,2.5191,2.5191,2.5191,0,2.4639,2.4691,2.4722,2.476,2.4819,2.4836,2.4893,2.4915,2.4948,2.4989,2.4994,2.5031,2.5052,2.5093,2.5106,2.5162,2.5174,2.5183,2.5186,2.5182,2.518,2.5196,2.519,2.5193,2.5193,2.5192,2.5192,0,2.4701,2.4724,2.4791,2.4835,2.4847,2.4888,2.4925,2.4961,2.498,2.5031,2.5044,2.5073,2.5121,2.5142,2.5201,2.5209,2.5273,2.5273,2.5259,2.526,2.5292,2.5287,2.5398,2.5412,2.5331,2.5332,2.5333,0,2.4749,2.479,2.4838,2.4866,2.4889,2.4935,2.4964,2.4982,2.5012,2.5059,2.5089,2.5137,2.5176,2.5252,2.5277,2.5322,2.5322,2.5357,2.5328,2.5322,2.5319,2.5315,2.5318,2.5362,2.5363,2.5363,2.5364,0,2.4831,2.4841,2.4883,2.493,2.4965,2.5002,2.5038,2.5061,2.5084,2.5118,2.5167,2.5197,2.5257,2.5303,2.5349,2.5371,2.537,2.5373,2.5383,2.5378,2.5367,2.5371,2.5271,2.537,2.5369,2.5369,2.5369,2.5368,2.4887,2.4922,2.496,2.5007,2.5036,2.507,2.5105,2.5128,2.5169,2.522,2.5228,2.5279,2.5316,2.5377,2.5401,2.544,2.5431,2.5446,2.5449,2.5452,2.5452,2.5363,2.5449,2.5449,2.5449,2.5448,2.5448,0,2.4967,2.4991,2.5034,2.5085,2.5121,2.5119,2.5159,2.5188,2.5234,2.5268,2.5307,2.5362,2.5406,2.5435,2.548,2.5506,2.5507,2.5517,2.5514,2.5518,2.5459,2.5445,2.5515,2.5515,2.5515,2.5515,2.5515,2.5515,2.5012,2.5071,2.5084,2.5156,2.5181,2.5231,2.5254,2.5284,2.5311,2.5372,2.541,2.5429,2.546,2.5507,2.5547,2.5555,2.557,2.558,2.5586,2.553,2.5523,2.5516,2.5503,2.5584,2.5584,2.5642,2.5642,2.5642]},{"header":{"parameterUnit":"m.s-1","parameterCategory":1,"la1":30.2991,"la2":30.254,"lo1":-89.0895,"lo2":-89.0444,"dy":0.0017,"dx":0.0017,"nx":28,"ny":28,"refTime":"2024-07-22T03:00:00:Z","depth":0,"parameterNumber":3,"parameterNumberName":"V-component_of_WINDS"},"data":[0,0,0,0,0,0,0,0,0,0,0,0,0,0,0,0,0,0,0,0,0,0,0,0,0,0,0,0,0,0,0,0,0,0,0,0,0,0,0,0,0,0,0,0,0,0,0,0,0,0,0,0,0,0,0,0,0,0,0.222,0.222,0,0.2229,0.2229,0.223,0.2214,0.2213,0.2213,0.2212,0.2224,0.2225,0.2225,0,0,0,0,0,0,0,0,0,0,0,0,0,0.2191,0.2192,0.222,0.222,0.2221,0.2229,0.2229,0.223,0.2214,0.2213,0.2213,0.2212,0.2224,0.2225,0.2226,0,0,0,0,0,0,0,0,0,0,0,0,0,0.2202,0.2192,0.222,0.2214,0.2213,0.2229,0.2229,0.223,0.2214,0.2213,0.2213,0.2212,0.2223,0.2224,0.2226,0.2249,0,0,0.2229,0.223,0,0,0,0,0,0,0,0,0.2202,0.2203,0.2215,0.2214,0.2214,0.222,0.2223,0.2236,0.2214,0.2214,0.2212,0.2211,0.2223,0.2224,0.2228,0.225,0.225,0.2229,0.223,0.2231,0.2231,0,0,0,0,0,0,0,0.2201,0.2203,0.2224,0.2215,0.2214,0.2211,0.2212,0.2226,0.2223,0.2214,0.2213,0.2214,0.2223,0.2227,0.2228,0.225,0.2229,0.223,0.2231,0.2232,0.229,0.2291,0,0,0,0,0,0,0.2201,0.2202,0.2224,0.2224,0.2206,0.2212,0.2213,0.2219,0.2223,0.2223,0.2215,0.2213,0.2225,0.2227,0.2228,0.2255,0.2231,0.2232,0.2233,0.2289,0.229,0.2291,0,0,0,0,0,0,0.22,0.2203,0.2223,0.2213,0.2215,0.2213,0.222,0.2219,0.2223,0.2223,0.2223,0.2219,0.2225,0.2227,0.2244,0.2256,0.2232,0.2233,0.2288,0.229,0.2291,0.231,0,0,0,0,0,0,0.2199,0.2203,0.2211,0.2213,0.2216,0.2238,0.2221,0.222,0.2225,0.2223,0.2227,0.2227,0.2224,0.2242,0.2245,0.2257,0.2234,0.2287,0.2289,0.2291,0.2308,0.2312,0.2315,0,0,0,0,0,0.2198,0.2217,0.2212,0.2215,0.2227,0.2239,0.224,0.2236,0.2226,0.2235,0.2235,0.2227,0.2254,0.2244,0.2247,0.226,0.2287,0.2289,0.229,0.2307,0.2311,0.2315,0,0,0,0,0,0,0.2218,0.2217,0.2212,0.2231,0.2235,0.2236,0.2247,0.224,0.2248,0.2246,0.224,0.2241,0.2259,0.2261,0.225,0.2282,0.2269,0.2271,0.228,0.2284,0.2287,0.2287,0.2235,0,0,0,0,0,0.2224,0.2234,0.2233,0.2251,0.2253,0.225,0.2255,0.225,0.2255,0.2256,0.2258,0.2262,0.2271,0.2278,0.2286,0.2308,0.2309,0.2318,0.2322,0.2324,0.2327,0.2338,0.2342,0.2298,0.2298,0.2297,0,0,0.2238,0.2239,0.2246,0.2254,0.2257,0.2267,0.2251,0.2263,0.227,0.2258,0.2274,0.2275,0.228,0.2299,0.2307,0.2301,0.2339,0.2327,0.2329,0.233,0.234,0.2344,0.2348,0.2299,0.2299,0.2298,0,0,0.2269,0.227,0.2285,0.2287,0.229,0.2288,0.2291,0.2293,0.2293,0.2308,0.2299,0.2308,0.2324,0.2328,0.2331,0.2361,0.2354,0.2364,0.2381,0.2392,0.2395,0.2398,0.2409,0.2413,0.2366,0.2367,0.2367,0,0.2286,0.23,0.2293,0.2305,0.2309,0.2297,0.2312,0.2314,0.2321,0.2324,0.2316,0.2335,0.2338,0.2357,0.2364,0.2368,0.2372,0.2364,0.2395,0.2398,0.2401,0.2411,0.2415,0.2368,0.2368,0.2367,0.2367,0,0.2321,0.2331,0.2342,0.2347,0.2352,0.2365,0.2361,0.2367,0.2362,0.236,0.2375,0.2378,0.2386,0.239,0.2386,0.2409,0.2404,0.2396,0.2383,0.2407,0.2416,0.2419,0.2369,0.2369,0.2369,0.2368,0,0,0.2365,0.2365,0.2369,0.2371,0.2373,0.2381,0.2393,0.24,0.2405,0.241,0.242,0.2433,0.2425,0.2429,0.2425,0.2434,0.2457,0.2425,0.2425,0.243,0.2482,0.2488,0.2493,0.2452,0.2453,0.2453,0.2481,0,0.2395,0.2415,0.2409,0.243,0.2439,0.2427,0.2437,0.244,0.2438,0.2446,0.2444,0.2453,0.2442,0.2445,0.2453,0.2452,0.2467,0.245,0.2462,0.2462,0.2461,0.2497,0.2504,0.2531,0.2485,0.2485,0.2486,0,0.2433,0.2437,0.2459,0.2458,0.2462,0.2471,0.2477,0.2484,0.2486,0.2484,0.2488,0.2482,0.2494,0.248,0.2496,0.2485,0.2489,0.2489,0.249,0.2491,0.2476,0.25,0.2539,0.2543,0.2491,0.2491,0.2491,0,0.2463,0.2474,0.2488,0.249,0.249,0.2497,0.2497,0.2498,0.2503,0.2507,0.251,0.2516,0.252,0.2525,0.2521,0.2511,0.2538,0.2523,0.2537,0.2537,0.2543,0.2543,0.2584,0.2546,0.2546,0.2546,0.2546,0,0.2497,0.2511,0.2501,0.251,0.2525,0.2517,0.2532,0.2531,0.2532,0.254,0.253,0.2539,0.2532,0.2539,0.2536,0.2549,0.2551,0.255,0.2549,0.2551,0.2551,0.2554,0.2552,0.2547,0.2546,0.2546,0.2546,0,0.2533,0.2528,0.2542,0.254,0.254,0.255,0.2549,0.2557,0.2554,0.2564,0.2566,0.2562,0.257,0.2566,0.2575,0.2572,0.259,0.2587,0.2589,0.2588,0.2602,0.26,0.2646,0.2652,0.261,0.261,0.261,0,0.2556,0.2566,0.2564,0.2568,0.2569,0.2576,0.258,0.2572,0.2577,0.2579,0.2587,0.2594,0.2599,0.2613,0.2611,0.2617,0.2614,0.2629,0.2615,0.2616,0.2614,0.2614,0.2614,0.2633,0.2633,0.2634,0.2634,0,0.2596,0.2592,0.2598,0.2602,0.2606,0.261,0.2612,0.2616,0.2609,0.2614,0.2622,0.2626,0.2634,0.2641,0.2646,0.2647,0.2639,0.2638,0.2642,0.2644,0.2645,0.2644,0.2597,0.2637,0.2637,0.2637,0.2637,0.2636,0.2626,0.2634,0.2633,0.2639,0.264,0.2642,0.2649,0.2646,0.2652,0.2658,0.2653,0.2662,0.2663,0.2669,0.267,0.2677,0.2671,0.2676,0.2678,0.2679,0.2681,0.2643,0.2678,0.2678,0.2678,0.2678,0.2678,0,0.2665,0.2664,0.267,0.2672,0.2677,0.2668,0.267,0.2675,0.2683,0.2684,0.2689,0.2697,0.2704,0.2702,0.2707,0.2713,0.271,0.2715,0.2715,0.2715,0.2686,0.2682,0.2718,0.2718,0.2718,0.2718,0.2718,0.2718,0.2686,0.2699,0.2695,0.2707,0.2706,0.2714,0.2716,0.2718,0.2718,0.2728,0.2733,0.2731,0.2731,0.2736,0.2742,0.2741,0.2743,0.275,0.2748,0.2721,0.2717,0.2713,0.271,0.275,0.275,0.2776,0.2776,0.2776]}]]